Time,TemperatureF,DewpointF,PressureIn,WindDirection,WindDirectionDegrees,WindSpeedMPH,WindSpeedGustMPH,Humidity,HourlyPrecipIn,Conditions,Clouds,dailyrainin,SoftwareType,DateUTC
2013-11-19 00:01:00,35.9,27.4,30.05,North,353,6.0,10.0,71,0.00,,,0.00,VWS V14.01,2013-11-19 05:01:00,
2013-11-19 00:06:00,36.0,27.5,30.06,WSW,252,2.0,4.0,71,0.00,,,0.00,VWS V14.01,2013-11-19 05:06:00,
2013-11-19 00:11:00,35.9,27.8,30.06,SW,219,1.0,4.0,72,0.00,,,0.00,VWS V14.01,2013-11-19 05:11:00,
2013-11-19 00:16:00,35.9,27.4,30.06,NNW,344,1.0,7.0,71,0.00,,,0.00,VWS V14.01,2013-11-19 05:16:00,
2013-11-19 00:21:00,35.9,27.4,30.06,NNW,330,3.0,7.0,71,0.00,,,0.00,VWS V14.01,2013-11-19 05:21:00,
2013-11-19 00:26:00,35.9,27.8,30.06,NNE,15,0.0,7.0,72,0.00,,,0.00,VWS V14.01,2013-11-19 05:26:00,
2013-11-19 00:31:00,35.9,27.8,30.06,SSE,152,0.0,7.0,72,0.00,,,0.00,VWS V14.01,2013-11-19 05:31:00,
2013-11-19 00:36:00,35.8,28.0,30.06,SSW,198,0.0,7.0,73,0.00,,,0.00,VWS V14.01,2013-11-19 05:36:00,
2013-11-19 00:41:00,35.8,28.0,30.06,SW,225,0.0,7.0,73,0.00,,,0.00,VWS V14.01,2013-11-19 05:41:00,
2013-11-19 00:46:00,35.7,27.9,30.06,SW,222,0.0,7.0,73,0.00,,,0.00,VWS V14.01,2013-11-19 05:46:00,
2013-11-19 00:51:00,35.7,27.9,30.06,West,277,0.0,7.0,73,0.00,,,0.00,VWS V14.01,2013-11-19 05:51:00,
2013-11-19 00:56:00,35.7,27.9,30.07,WNW,290,2.0,7.0,73,0.00,,,0.00,VWS V14.01,2013-11-19 05:56:00,
2013-11-19 01:01:00,35.7,27.9,30.07,West,277,1.0,7.0,73,0.00,,,0.00,VWS V14.01,2013-11-19 06:01:00,
2013-11-19 01:06:00,35.7,27.9,30.07,South,177,0.0,4.0,73,0.00,,,0.00,VWS V14.01,2013-11-19 06:06:00,
2013-11-19 01:11:00,35.7,27.9,30.07,NW,314,1.0,4.0,73,0.00,,,0.00,VWS V14.01,2013-11-19 06:11:00,
2013-11-19 01:16:00,35.7,27.9,30.07,SSW,204,1.0,4.0,73,0.00,,,0.00,VWS V14.01,2013-11-19 06:16:00,
2013-11-19 01:21:00,35.7,27.6,30.07,NNW,329,2.0,4.0,72,0.00,,,0.00,VWS V14.01,2013-11-19 06:21:00,
2013-11-19 01:26:00,35.7,27.6,30.07,SW,214,0.0,4.0,72,0.00,,,0.00,VWS V14.01,2013-11-19 06:26:00,
2013-11-19 01:31:00,35.7,27.6,30.07,SSW,195,0.0,4.0,72,0.00,,,0.00,VWS V14.01,2013-11-19 06:31:00,
2013-11-19 01:36:00,35.6,27.5,30.07,NNW,328,4.0,6.0,72,0.00,,,0.00,VWS V14.01,2013-11-19 06:36:00,
2013-11-19 01:41:00,35.7,27.6,30.08,WNW,298,2.0,6.0,72,0.00,,,0.00,VWS V14.01,2013-11-19 06:41:00,
2013-11-19 01:46:00,35.7,27.2,30.08,SW,228,0.0,6.0,71,0.00,,,0.00,VWS V14.01,2013-11-19 06:46:00,
2013-11-19 01:51:00,35.7,27.6,30.08,NW,326,2.0,6.0,72,0.00,,,0.00,VWS V14.01,2013-11-19 06:51:00,
2013-11-19 01:56:00,35.7,27.2,30.08,SW,222,0.0,6.0,71,0.00,,,0.00,VWS V14.01,2013-11-19 06:56:00,
2013-11-19 02:01:00,35.6,27.5,30.08,SW,231,1.0,6.0,72,0.00,,,0.00,VWS V14.01,2013-11-19 07:01:00,
2013-11-19 02:06:00,35.6,27.8,30.08,NNW,340,0.0,5.0,73,0.00,,,0.00,VWS V14.01,2013-11-19 07:06:00,
2013-11-19 02:11:00,35.6,27.5,30.09,WSW,249,1.0,5.0,72,0.00,,,0.00,VWS V14.01,2013-11-19 07:11:00,
2013-11-19 02:16:00,35.6,27.1,30.09,WNW,288,1.0,5.0,71,0.00,,,0.00,VWS V14.01,2013-11-19 07:16:00,
2013-11-19 02:21:00,35.7,26.9,30.09,NW,314,0.0,6.0,70,0.00,,,0.00,VWS V14.01,2013-11-19 07:21:00,
2013-11-19 02:26:00,35.7,26.9,30.09,East,100,2.0,9.0,70,0.00,,,0.00,VWS V14.01,2013-11-19 07:26:00,
2013-11-19 02:31:00,35.7,26.9,30.09,WSW,240,3.0,9.0,70,0.00,,,0.00,VWS V14.01,2013-11-19 07:31:00,
2013-11-19 02:36:00,35.7,26.5,30.09,NW,307,3.0,9.0,69,0.00,,,0.00,VWS V14.01,2013-11-19 07:36:00,
2013-11-19 02:41:00,35.6,26.5,30.10,NW,309,3.0,9.0,69,0.00,,,0.00,VWS V14.01,2013-11-19 07:41:00,
2013-11-19 02:46:00,35.6,26.5,30.10,NNW,344,3.0,9.0,69,0.00,,,0.00,VWS V14.01,2013-11-19 07:46:00,
2013-11-19 02:51:00,35.6,26.8,30.09,SSW,205,1.0,9.0,70,0.00,,,0.00,VWS V14.01,2013-11-19 07:51:00,
2013-11-19 02:56:00,35.6,26.8,30.09,SW,221,1.0,9.0,70,0.00,,,0.00,VWS V14.01,2013-11-19 07:56:00,
2013-11-19 03:01:00,35.5,26.4,30.09,South,179,0.0,9.0,69,0.00,,,0.00,VWS V14.01,2013-11-19 08:01:00,
2013-11-19 03:06:00,35.5,26.7,30.10,SSW,200,0.0,9.0,70,0.00,,,0.00,VWS V14.01,2013-11-19 08:06:00,
2013-11-19 03:11:00,35.5,26.7,30.10,SSW,208,0.0,9.0,70,0.00,,,0.00,VWS V14.01,2013-11-19 08:11:00,
2013-11-19 03:16:00,35.5,27.0,30.10,SSW,203,0.0,9.0,71,0.00,,,0.00,VWS V14.01,2013-11-19 08:16:00,
2013-11-19 03:21:00,35.4,27.0,30.10,SW,228,0.0,9.0,71,0.00,,,0.00,VWS V14.01,2013-11-19 08:21:00,
2013-11-19 03:26:00,35.4,27.3,30.10,South,188,0.0,9.0,72,0.00,,,0.00,VWS V14.01,2013-11-19 08:26:00,
2013-11-19 03:31:00,35.3,27.2,30.10,North,360,0.0,9.0,72,0.00,,,0.00,VWS V14.01,2013-11-19 08:31:00,
2013-11-19 03:36:00,35.3,27.2,30.11,North,360,0.0,9.0,72,0.00,,,0.00,VWS V14.01,2013-11-19 08:36:00,
2013-11-19 03:41:00,35.3,27.2,30.11,WSW,242,0.0,9.0,72,0.00,,,0.00,VWS V14.01,2013-11-19 08:41:00,
2013-11-19 03:46:00,35.3,27.2,30.11,WSW,238,0.0,9.0,72,0.00,,,0.00,VWS V14.01,2013-11-19 08:46:00,
2013-11-19 03:51:00,35.3,27.9,30.11,SSW,194,0.0,9.0,74,0.00,,,0.00,VWS V14.01,2013-11-19 08:51:00,
2013-11-19 03:56:00,35.3,27.9,30.11,SSW,193,0.0,9.0,74,0.00,,,0.00,VWS V14.01,2013-11-19 08:56:00,
2013-11-19 04:01:00,35.2,27.4,30.11,SE,125,0.0,9.0,73,0.00,,,0.00,VWS V14.01,2013-11-19 09:01:00,
2013-11-19 04:06:00,35.2,26.8,30.12,NNW,329,2.0,9.0,71,0.00,,,0.00,VWS V14.01,2013-11-19 09:06:00,
2013-11-19 04:11:00,35.3,26.9,30.12,SSW,194,0.0,9.0,71,0.00,,,0.00,VWS V14.01,2013-11-19 09:11:00,
2013-11-19 04:16:00,35.3,26.9,30.12,North,8,0.0,9.0,71,0.00,,,0.00,VWS V14.01,2013-11-19 09:16:00,
2013-11-19 04:21:00,35.3,26.9,30.12,WNW,288,1.0,9.0,71,0.00,,,0.00,VWS V14.01,2013-11-19 09:21:00,
2013-11-19 04:26:00,35.3,26.9,30.12,North,353,2.0,9.0,71,0.00,,,0.00,VWS V14.01,2013-11-19 09:26:00,
2013-11-19 04:31:00,35.3,27.2,30.12,SW,214,0.0,9.0,72,0.00,,,0.00,VWS V14.01,2013-11-19 09:31:00,
2013-11-19 04:36:00,35.3,26.9,30.12,WSW,252,2.0,9.0,71,0.00,,,0.00,VWS V14.01,2013-11-19 09:36:00,
2013-11-19 04:41:00,35.3,26.9,30.12,SW,225,0.0,9.0,71,0.00,,,0.00,VWS V14.01,2013-11-19 09:41:00,
2013-11-19 04:46:00,35.2,26.8,30.12,WSW,246,0.0,9.0,71,0.00,,,0.00,VWS V14.01,2013-11-19 09:46:00,
2013-11-19 04:51:00,35.2,26.8,30.13,SW,224,1.0,9.0,71,0.00,,,0.00,VWS V14.01,2013-11-19 09:51:00,
2013-11-19 04:56:00,35.2,27.1,30.13,South,173,0.0,9.0,72,0.00,,,0.00,VWS V14.01,2013-11-19 09:56:00,
2013-11-19 05:01:00,35.2,26.8,30.13,SSW,207,0.0,9.0,71,0.00,,,0.00,VWS V14.01,2013-11-19 10:01:00,
2013-11-19 05:06:00,35.2,26.4,30.13,WSW,246,0.0,9.0,70,0.00,,,0.00,VWS V14.01,2013-11-19 10:06:00,
2013-11-19 05:11:00,35.2,26.4,30.13,West,262,0.0,9.0,70,0.00,,,0.00,VWS V14.01,2013-11-19 10:11:00,
2013-11-19 05:16:00,35.2,27.1,30.13,SW,221,1.0,9.0,72,0.00,,,0.00,VWS V14.01,2013-11-19 10:16:00,
2013-11-19 05:21:00,35.2,27.1,30.14,SSW,205,0.0,9.0,72,0.00,,,0.00,VWS V14.01,2013-11-19 10:21:00,
2013-11-19 05:26:00,35.1,27.0,30.14,SW,229,0.0,9.0,72,0.00,,,0.00,VWS V14.01,2013-11-19 10:26:00,
2013-11-19 05:31:00,35.1,27.3,30.15,SSW,212,0.0,9.0,73,0.00,,,0.00,VWS V14.01,2013-11-19 10:31:00,
2013-11-19 05:36:00,35.1,27.3,30.15,SW,228,0.0,9.0,73,0.00,,,0.00,VWS V14.01,2013-11-19 10:36:00,
2013-11-19 05:41:00,35.0,26.6,30.15,NW,323,3.0,9.0,71,0.00,,,0.00,VWS V14.01,2013-11-19 10:41:00,
2013-11-19 05:46:00,35.0,26.2,30.15,NE,41,0.0,9.0,70,0.00,,,0.00,VWS V14.01,2013-11-19 10:46:00,
2013-11-19 05:51:00,35.0,26.2,30.15,NNE,16,0.0,9.0,70,0.00,,,0.00,VWS V14.01,2013-11-19 10:51:00,
2013-11-19 05:56:00,35.0,26.6,30.15,NW,325,0.0,9.0,71,0.00,,,0.00,VWS V14.01,2013-11-19 10:56:00,
2013-11-19 06:01:00,35.0,26.2,30.16,NNE,24,1.0,9.0,70,0.00,,,0.00,VWS V14.01,2013-11-19 11:01:00,
2013-11-19 06:06:00,35.0,26.2,30.16,NNE,19,0.0,9.0,70,0.00,,,0.00,VWS V14.01,2013-11-19 11:06:00,
2013-11-19 06:11:00,34.9,26.5,30.16,SW,233,0.0,9.0,71,0.00,,,0.00,VWS V14.01,2013-11-19 11:11:00,
2013-11-19 06:16:00,34.9,26.5,30.16,WSW,250,0.0,9.0,71,0.00,,,0.00,VWS V14.01,2013-11-19 11:16:00,
2013-11-19 06:21:00,34.9,26.8,30.17,SW,217,0.0,9.0,72,0.00,,,0.00,VWS V14.01,2013-11-19 11:21:00,
2013-11-19 06:26:00,34.9,26.8,30.17,SSW,195,0.0,9.0,72,0.00,,,0.00,VWS V14.01,2013-11-19 11:26:00,
2013-11-19 06:31:00,34.8,26.7,30.17,SW,219,0.0,9.0,72,0.00,,,0.00,VWS V14.01,2013-11-19 11:31:00,
2013-11-19 06:36:00,34.8,26.7,30.17,NNE,33,0.0,9.0,72,0.00,,,0.00,VWS V14.01,2013-11-19 11:36:00,
2013-11-19 06:41:00,34.7,26.3,30.18,NNE,21,0.0,9.0,71,0.00,,,0.00,VWS V14.01,2013-11-19 11:41:00,
2013-11-19 06:46:00,34.8,26.7,30.18,SW,235,0.0,9.0,72,0.00,,,0.00,VWS V14.01,2013-11-19 11:46:00,
2013-11-19 06:51:00,34.8,26.7,30.18,SW,228,0.0,9.0,72,0.00,,,0.00,VWS V14.01,2013-11-19 11:51:00,
2013-11-19 06:56:00,34.7,26.6,30.19,NNE,31,0.0,9.0,72,0.00,,,0.00,VWS V14.01,2013-11-19 11:56:00,
2013-11-19 07:00:00,34.7,26.6,30.19,SW,226,1.0,9.0,72,0.00,,,0.00,VWS V14.01,2013-11-19 12:00:00,
2013-11-19 07:05:00,34.7,26.6,30.19,SSW,200,0.0,9.0,72,0.00,,,0.00,VWS V14.01,2013-11-19 12:05:00,
2013-11-19 07:10:00,34.7,27.0,30.19,SSW,203,0.0,9.0,73,0.00,,,0.00,VWS V14.01,2013-11-19 12:10:00,
2013-11-19 07:15:00,34.7,27.0,30.20,SW,226,0.0,9.0,73,0.00,,,0.00,VWS V14.01,2013-11-19 12:15:00,
2013-11-19 07:20:00,34.7,27.3,30.20,West,276,1.0,9.0,74,0.00,,,0.00,VWS V14.01,2013-11-19 12:20:00,
2013-11-19 07:25:00,34.7,27.0,30.20,SW,222,0.0,9.0,73,0.00,,,0.00,VWS V14.01,2013-11-19 12:25:00,
2013-11-19 07:30:00,34.7,27.0,30.20,SSE,165,0.0,9.0,73,0.00,,,0.00,VWS V14.01,2013-11-19 12:30:00,
2013-11-19 07:35:00,34.7,27.0,30.20,SE,124,0.0,9.0,73,0.00,,,0.00,VWS V14.01,2013-11-19 12:35:00,
2013-11-19 07:40:00,34.6,26.5,30.20,NW,323,0.0,9.0,72,0.00,,,0.00,VWS V14.01,2013-11-19 12:40:00,
2013-11-19 07:45:00,34.6,26.2,30.20,SW,235,0.0,9.0,71,0.00,,,0.00,VWS V14.01,2013-11-19 12:45:00,
2013-11-19 07:50:00,34.5,26.1,30.20,NNW,336,0.0,9.0,71,0.00,,,0.00,VWS V14.01,2013-11-19 12:50:00,
2013-11-19 07:55:00,34.5,26.4,30.20,West,262,0.0,9.0,72,0.00,,,0.00,VWS V14.01,2013-11-19 12:55:00,
2013-11-19 08:00:00,34.5,26.1,30.20,WSW,240,1.0,9.0,71,0.00,,,0.00,VWS V14.01,2013-11-19 13:00:00,
2013-11-19 08:05:00,34.6,26.5,30.20,SW,215,0.0,9.0,72,0.00,,,0.00,VWS V14.01,2013-11-19 13:05:00,
2013-11-19 08:10:00,34.6,26.5,30.20,SSW,208,0.0,9.0,72,0.00,,,0.00,VWS V14.01,2013-11-19 13:10:00,
2013-11-19 08:15:00,34.7,27.0,30.21,NNW,345,1.0,9.0,73,0.00,,,0.00,VWS V14.01,2013-11-19 13:15:00,
2013-11-19 08:20:00,34.7,27.0,30.21,South,174,0.0,9.0,73,0.00,,,0.00,VWS V14.01,2013-11-19 13:20:00,
2013-11-19 08:25:00,34.8,27.0,30.21,South,176,0.0,9.0,73,0.00,,,0.00,VWS V14.01,2013-11-19 13:25:00,
2013-11-19 08:30:00,34.9,27.1,30.21,SW,235,0.0,9.0,73,0.00,,,0.00,VWS V14.01,2013-11-19 13:30:00,
2013-11-19 08:35:00,35.0,27.2,30.22,SW,221,0.0,9.0,73,0.00,,,0.00,VWS V14.01,2013-11-19 13:35:00,
2013-11-19 08:40:00,35.1,27.3,30.22,SW,233,0.0,9.0,73,0.00,,,0.00,VWS V14.01,2013-11-19 13:40:00,
2013-11-19 08:45:00,35.2,27.8,30.22,SW,231,2.0,9.0,74,0.00,,,0.00,VWS V14.01,2013-11-19 13:45:00,
2013-11-19 08:50:00,35.3,27.2,30.22,WSW,237,0.0,9.0,72,0.00,,,0.00,VWS V14.01,2013-11-19 13:50:00,
2013-11-19 08:55:00,35.5,27.7,30.22,SW,224,0.0,9.0,73,0.00,,,0.00,VWS V14.01,2013-11-19 13:55:00,
2013-11-19 09:00:00,35.6,26.8,30.22,SW,221,0.0,9.0,70,0.00,,,0.00,VWS V14.01,2013-11-19 14:00:00,
2013-11-19 09:05:00,35.7,27.2,30.23,West,264,1.0,9.0,71,0.00,,,0.00,VWS V14.01,2013-11-19 14:05:00,
2013-11-19 09:10:00,35.8,27.0,30.23,WNW,285,4.0,9.0,70,0.00,,,0.00,VWS V14.01,2013-11-19 14:10:00,
2013-11-19 09:15:00,35.9,26.7,30.23,SSW,205,0.0,9.0,69,0.00,,,0.00,VWS V14.01,2013-11-19 14:15:00,
2013-11-19 09:20:00,35.9,27.1,30.23,NW,325,0.0,9.0,70,0.00,,,0.00,VWS V14.01,2013-11-19 14:20:00,
2013-11-19 09:25:00,36.0,26.5,30.23,WSW,239,0.0,9.0,68,0.00,,,0.00,VWS V14.01,2013-11-19 14:25:00,
2013-11-19 09:28:00,36.1,26.9,30.23,ENE,64,0.0,9.0,69,0.00,,,0.00,VWS V14.01,2013-11-19 14:28:00,
2013-11-19 09:33:00,36.1,26.2,30.24,WNW,298,2.0,9.0,67,0.00,,,0.00,VWS V14.01,2013-11-19 14:33:00,
2013-11-19 09:38:00,36.3,27.5,30.24,NNW,336,0.0,9.0,70,0.00,,,0.00,VWS V14.01,2013-11-19 14:38:00,
2013-11-19 09:43:00,36.5,27.3,30.24,SSE,158,0.0,9.0,69,0.00,,,0.00,VWS V14.01,2013-11-19 14:43:00,
2013-11-19 09:48:00,36.7,27.1,30.24,SW,219,0.0,9.0,68,0.00,,,0.00,VWS V14.01,2013-11-19 14:48:00,
2013-11-19 09:53:00,36.8,27.6,30.24,SW,215,2.0,9.0,69,0.00,,,0.00,VWS V14.01,2013-11-19 14:53:00,
2013-11-19 09:58:00,36.7,27.5,30.24,South,180,0.0,9.0,69,0.00,,,0.00,VWS V14.01,2013-11-19 14:58:00,
2013-11-19 10:03:00,36.9,28.0,30.25,SSE,150,1.0,9.0,70,0.00,,,0.00,VWS V14.01,2013-11-19 15:03:00,
2013-11-19 10:08:00,37.0,28.1,30.25,SSE,153,0.0,9.0,70,0.00,,,0.00,VWS V14.01,2013-11-19 15:08:00,
2013-11-19 10:13:00,37.3,28.1,30.25,South,186,0.0,9.0,69,0.00,,,0.00,VWS V14.01,2013-11-19 15:13:00,
2013-11-19 10:18:00,37.3,27.7,30.25,SE,132,0.0,9.0,68,0.00,,,0.00,VWS V14.01,2013-11-19 15:18:00,
2013-11-19 10:23:00,37.3,28.1,30.25,SSE,165,0.0,9.0,69,0.00,,,0.00,VWS V14.01,2013-11-19 15:23:00,
2013-11-19 10:28:00,37.4,28.2,30.25,NNE,12,2.0,9.0,69,0.00,,,0.00,VWS V14.01,2013-11-19 15:28:00,
2013-11-19 10:33:00,37.4,27.8,30.25,NNW,327,0.0,9.0,68,0.00,,,0.00,VWS V14.01,2013-11-19 15:33:00,
2013-11-19 10:38:00,37.4,27.8,30.25,North,349,2.0,9.0,68,0.00,,,0.00,VWS V14.01,2013-11-19 15:38:00,
2013-11-19 10:43:00,37.4,27.5,30.25,West,276,3.0,9.0,67,0.00,,,0.00,VWS V14.01,2013-11-19 15:43:00,
2013-11-19 10:48:00,37.2,26.9,30.25,SW,222,0.0,9.0,66,0.00,,,0.00,VWS V14.01,2013-11-19 15:48:00,
2013-11-19 10:53:00,37.0,26.7,30.25,SSE,155,0.0,9.0,66,0.00,,,0.00,VWS V14.01,2013-11-19 15:53:00,
2013-11-19 10:58:00,36.8,26.5,30.25,SW,231,0.0,9.0,66,0.00,,,0.00,VWS V14.01,2013-11-19 15:58:00,
2013-11-19 11:03:00,36.9,26.6,30.25,North,360,0.0,9.0,66,0.00,,,0.00,VWS V14.01,2013-11-19 16:03:00,
2013-11-19 11:08:00,36.9,26.6,30.25,ESE,108,0.0,9.0,66,0.00,,,0.00,VWS V14.01,2013-11-19 16:08:00,
2013-11-19 11:13:00,36.8,26.1,30.25,SW,225,0.0,9.0,65,0.00,,,0.00,VWS V14.01,2013-11-19 16:13:00,
2013-11-19 11:17:00,36.9,26.6,30.25,SW,214,0.0,9.0,66,0.00,,,0.00,VWS V14.01,2013-11-19 16:17:00,
2013-11-19 11:22:00,37.0,26.7,30.25,ESE,117,0.0,9.0,66,0.00,,,0.00,VWS V14.01,2013-11-19 16:22:00,
2013-11-19 11:27:00,37.1,26.8,30.25,SSE,165,0.0,9.0,66,0.00,,,0.00,VWS V14.01,2013-11-19 16:27:00,
2013-11-19 11:32:00,37.3,27.0,30.25,SW,228,0.0,9.0,66,0.00,,,0.00,VWS V14.01,2013-11-19 16:32:00,
2013-11-19 11:38:00,37.4,26.4,30.24,SW,222,0.0,9.0,64,0.00,,,0.00,VWS V14.01,2013-11-19 16:38:00,
2013-11-19 11:42:00,37.4,26.4,30.24,SSW,195,0.0,9.0,64,0.00,,,0.00,VWS V14.01,2013-11-19 16:42:00,
2013-11-19 11:47:00,37.6,26.5,30.24,ESE,108,0.0,9.0,64,0.00,,,0.00,VWS V14.01,2013-11-19 16:47:00,
2013-11-19 11:52:00,37.9,27.6,30.24,ESE,113,1.0,9.0,66,0.00,,,0.00,VWS V14.01,2013-11-19 16:52:00,
2013-11-19 11:57:00,37.6,26.2,30.24,ESE,122,0.0,9.0,63,0.00,,,0.00,VWS V14.01,2013-11-19 16:57:00,
2013-11-19 12:03:00,37.4,26.4,30.24,SW,225,0.0,9.0,64,0.00,,,0.00,VWS V14.01,2013-11-19 17:03:00,
2013-11-19 12:08:00,37.5,26.8,30.24,SSE,149,0.0,9.0,65,0.00,,,0.00,VWS V14.01,2013-11-19 17:08:00,
2013-11-19 12:13:00,37.8,26.7,30.24,South,176,0.0,9.0,64,0.00,,,0.00,VWS V14.01,2013-11-19 17:13:00,
2013-11-19 12:18:00,38.1,27.0,30.24,SW,235,1.0,9.0,64,0.00,,,0.00,VWS V14.01,2013-11-19 17:18:00,
2013-11-19 12:23:00,38.2,26.3,30.24,SSE,167,0.0,9.0,62,0.00,,,0.00,VWS V14.01,2013-11-19 17:23:00,
2013-11-19 12:28:00,38.1,26.2,30.24,South,186,0.0,9.0,62,0.00,,,0.00,VWS V14.01,2013-11-19 17:28:00,
2013-11-19 12:33:00,38.0,26.5,30.24,South,190,0.0,9.0,63,0.00,,,0.00,VWS V14.01,2013-11-19 17:33:00,
2013-11-19 12:35:00,38.0,26.5,30.24,ESE,114,0.0,9.0,63,0.00,,,0.00,VWS V14.01,2013-11-19 17:35:00,
2013-11-19 12:40:00,38.2,27.1,30.24,NNW,332,0.0,9.0,64,0.00,,,0.00,VWS V14.01,2013-11-19 17:40:00,
2013-11-19 12:45:00,38.4,26.9,30.24,West,281,1.0,9.0,63,0.00,,,0.00,VWS V14.01,2013-11-19 17:45:00,
2013-11-19 12:50:00,38.6,26.7,30.24,South,173,0.0,9.0,62,0.00,,,0.00,VWS V14.01,2013-11-19 17:50:00,
2013-11-19 12:55:00,38.6,26.7,30.24,SE,140,0.0,9.0,62,0.00,,,0.00,VWS V14.01,2013-11-19 17:55:00,
2013-11-19 13:00:00,38.5,26.6,30.24,SE,124,0.0,9.0,62,0.00,,,0.00,VWS V14.01,2013-11-19 18:00:00,
2013-11-19 13:05:00,38.7,26.8,30.23,WNW,302,3.0,5.0,62,0.00,,,0.00,VWS V14.01,2013-11-19 18:05:00,
2013-11-19 13:10:00,38.9,27.0,30.23,SSE,166,1.0,5.0,62,0.00,,,0.00,VWS V14.01,2013-11-19 18:10:00,
2013-11-19 13:15:00,39.1,26.4,30.23,SSE,152,0.0,5.0,60,0.00,,,0.00,VWS V14.01,2013-11-19 18:15:00,
2013-11-19 13:20:00,39.4,26.7,30.23,SSE,152,0.0,5.0,60,0.00,,,0.00,VWS V14.01,2013-11-19 18:20:00,
2013-11-19 13:25:00,40.2,27.8,30.23,NW,307,3.0,5.0,61,0.00,,,0.00,VWS V14.01,2013-11-19 18:25:00,
2013-11-19 13:30:00,40.5,26.9,30.23,NW,319,2.0,5.0,58,0.00,,,0.00,VWS V14.01,2013-11-19 18:30:00,
2013-11-19 13:35:00,40.8,27.2,30.23,WNW,290,1.0,5.0,58,0.00,,,0.00,VWS V14.01,2013-11-19 18:35:00,
2013-11-19 13:40:00,41.0,27.0,30.23,South,173,0.0,5.0,57,0.00,,,0.00,VWS V14.01,2013-11-19 18:40:00,
2013-11-19 13:45:00,41.1,27.5,30.23,South,186,0.0,5.0,58,0.00,,,0.00,VWS V14.01,2013-11-19 18:45:00,
2013-11-19 13:50:00,41.3,26.8,30.23,SSW,193,0.0,5.0,56,0.00,,,0.00,VWS V14.01,2013-11-19 18:50:00,
2013-11-19 13:55:00,41.5,27.4,30.23,SSW,204,0.0,5.0,57,0.00,,,0.00,VWS V14.01,2013-11-19 18:55:00,
2013-11-19 14:00:00,41.7,27.2,30.23,South,187,0.0,5.0,56,0.00,,,0.00,VWS V14.01,2013-11-19 19:00:00,
2013-11-19 14:04:00,41.6,26.6,30.23,SE,146,1.0,5.0,55,0.00,,,0.00,VWS V14.01,2013-11-19 19:04:00,
2013-11-19 14:05:00,41.6,26.6,30.23,SE,146,1.0,5.0,55,0.00,,,0.00,VWS V14.01,2013-11-19 19:05:00,
2013-11-19 14:10:00,41.1,27.0,30.23,ESE,110,1.0,5.0,57,0.00,,,0.00,VWS V14.01,2013-11-19 19:10:00,
2013-11-19 14:15:00,41.4,26.9,30.22,SE,127,2.0,5.0,56,0.00,,,0.00,VWS V14.01,2013-11-19 19:15:00,
2013-11-19 14:20:00,41.4,27.8,30.22,SSW,203,0.0,5.0,58,0.00,,,0.00,VWS V14.01,2013-11-19 19:20:00,
2013-11-19 14:25:00,41.7,28.0,30.22,North,353,0.0,5.0,58,0.00,,,0.00,VWS V14.01,2013-11-19 19:25:00,
2013-11-19 14:30:00,41.7,27.2,30.22,North,360,0.0,5.0,56,0.00,,,0.00,VWS V14.01,2013-11-19 19:30:00,
2013-11-19 14:35:00,41.6,27.5,30.22,ESE,119,1.0,5.0,57,0.00,,,0.00,VWS V14.01,2013-11-19 19:35:00,
2013-11-19 14:40:00,41.1,26.6,30.22,SE,133,0.0,5.0,56,0.00,,,0.00,VWS V14.01,2013-11-19 19:40:00,
2013-11-19 14:45:00,40.9,26.9,30.22,SE,131,2.0,5.0,57,0.00,,,0.00,VWS V14.01,2013-11-19 19:45:00,
2013-11-19 14:50:00,41.0,26.5,30.22,WSW,255,1.0,5.0,56,0.00,,,0.00,VWS V14.01,2013-11-19 19:50:00,
2013-11-19 14:55:00,41.0,26.5,30.22,SSW,210,0.0,5.0,56,0.00,,,0.00,VWS V14.01,2013-11-19 19:55:00,
2013-11-19 15:00:00,40.8,26.3,30.22,SE,130,0.0,5.0,56,0.00,,,0.00,VWS V14.01,2013-11-19 20:00:00,
2013-11-19 15:05:00,40.8,27.6,30.22,SE,130,0.0,5.0,59,0.00,,,0.00,VWS V14.01,2013-11-19 20:05:00,
2013-11-19 15:10:00,41.1,27.0,30.22,South,183,0.0,5.0,57,0.00,,,0.00,VWS V14.01,2013-11-19 20:10:00,
2013-11-19 15:15:00,41.0,27.0,30.22,SE,141,0.0,5.0,57,0.00,,,0.00,VWS V14.01,2013-11-19 20:15:00,
2013-11-19 15:20:00,40.7,26.2,30.23,SE,130,0.0,5.0,56,0.00,,,0.00,VWS V14.01,2013-11-19 20:20:00,
2013-11-19 15:25:00,40.6,26.6,30.23,SE,129,0.0,5.0,57,0.00,,,0.00,VWS V14.01,2013-11-19 20:25:00,
2013-11-19 15:30:00,40.5,27.3,30.23,SE,130,0.0,5.0,59,0.00,,,0.00,VWS V14.01,2013-11-19 20:30:00,
2013-11-19 15:35:00,40.4,26.8,30.23,ESE,112,0.0,5.0,58,0.00,,,0.00,VWS V14.01,2013-11-19 20:35:00,
2013-11-19 15:40:00,40.3,26.7,30.23,ESE,111,0.0,5.0,58,0.00,,,0.00,VWS V14.01,2013-11-19 20:40:00,
2013-11-19 15:45:00,40.2,26.2,30.23,ESE,111,0.0,5.0,57,0.00,,,0.00,VWS V14.01,2013-11-19 20:45:00,
2013-11-19 15:50:00,40.1,26.1,30.24,ESE,114,0.0,5.0,57,0.00,,,0.00,VWS V14.01,2013-11-19 20:50:00,
2013-11-19 15:55:00,40.1,26.5,30.23,SE,131,0.0,5.0,58,0.00,,,0.00,VWS V14.01,2013-11-19 20:55:00,
2013-11-19 16:00:00,40.2,26.6,30.23,SE,130,0.0,5.0,58,0.00,,,0.00,VWS V14.01,2013-11-19 21:00:00,
2013-11-19 16:05:00,40.1,26.5,30.24,SE,130,0.0,5.0,58,0.00,,,0.00,VWS V14.01,2013-11-19 21:05:00,
2013-11-19 16:10:00,40.1,26.5,30.23,South,171,0.0,5.0,58,0.00,,,0.00,VWS V14.01,2013-11-19 21:10:00,
2013-11-19 16:14:00,40.2,26.6,30.24,South,170,0.0,5.0,58,0.00,,,0.00,VWS V14.01,2013-11-19 21:14:00,
2013-11-19 16:19:00,40.2,26.2,30.24,SSE,166,0.0,5.0,57,0.00,,,0.00,VWS V14.01,2013-11-19 21:19:00,
2013-11-19 16:24:00,40.2,26.6,30.24,SSE,167,0.0,5.0,58,0.00,,,0.00,VWS V14.01,2013-11-19 21:24:00,
2013-11-19 16:29:00,40.3,26.7,30.24,SSE,167,0.0,5.0,58,0.00,,,0.00,VWS V14.01,2013-11-19 21:29:00,
2013-11-19 16:34:00,40.3,26.7,30.24,SSE,149,0.0,5.0,58,0.00,,,0.00,VWS V14.01,2013-11-19 21:34:00,
2013-11-19 16:39:00,40.3,26.7,30.24,SSE,149,1.0,5.0,58,0.00,,,0.00,VWS V14.01,2013-11-19 21:39:00,
2013-11-19 16:44:00,40.0,27.6,30.24,ESE,114,0.0,5.0,61,0.00,,,0.00,VWS V14.01,2013-11-19 21:44:00,
2013-11-19 16:49:00,39.5,27.6,30.24,ESE,123,0.0,5.0,62,0.00,,,0.00,VWS V14.01,2013-11-19 21:49:00,
2013-11-19 16:54:00,39.2,27.3,30.25,ESE,122,1.0,5.0,62,0.00,,,0.00,VWS V14.01,2013-11-19 21:54:00,
2013-11-19 16:59:00,38.7,27.2,30.25,ESE,113,0.0,5.0,63,0.00,,,0.00,VWS V14.01,2013-11-19 21:59:00,
2013-11-19 17:04:00,38.5,27.4,30.25,ESE,113,0.0,5.0,64,0.00,,,0.00,VWS V14.01,2013-11-19 22:04:00,
2013-11-19 17:09:00,37.9,27.2,30.25,SE,125,1.0,5.0,65,0.00,,,0.00,VWS V14.01,2013-11-19 22:09:00,
2013-11-19 17:14:00,37.7,27.0,30.25,SE,125,0.0,5.0,65,0.00,,,0.00,VWS V14.01,2013-11-19 22:14:00,
2013-11-19 17:19:00,37.4,27.1,30.25,SE,125,0.0,5.0,66,0.00,,,0.00,VWS V14.01,2013-11-19 22:19:00,
2013-11-19 17:24:00,37.0,27.1,30.25,SE,125,0.0,5.0,67,0.00,,,0.00,VWS V14.01,2013-11-19 22:24:00,
2013-11-19 17:29:00,36.8,26.9,30.26,SE,134,0.0,5.0,67,0.00,,,0.00,VWS V14.01,2013-11-19 22:29:00,
2013-11-19 17:34:00,36.6,26.7,30.25,SE,134,0.0,5.0,67,0.00,,,0.00,VWS V14.01,2013-11-19 22:34:00,
2013-11-19 17:39:00,36.4,26.9,30.26,SE,134,0.0,5.0,68,0.00,,,0.00,VWS V14.01,2013-11-19 22:39:00,
2013-11-19 17:44:00,36.2,26.7,30.26,SE,134,0.0,5.0,68,0.00,,,0.00,VWS V14.01,2013-11-19 22:44:00,
2013-11-19 17:49:00,36.0,26.8,30.26,SE,134,0.0,5.0,69,0.00,,,0.00,VWS V14.01,2013-11-19 22:49:00,
2013-11-19 17:54:00,35.8,26.6,30.27,SE,134,0.0,5.0,69,0.00,,,0.00,VWS V14.01,2013-11-19 22:54:00,
2013-11-19 17:59:00,35.6,26.5,30.27,SE,134,0.0,5.0,69,0.00,,,0.00,VWS V14.01,2013-11-19 22:59:00,
2013-11-19 18:04:00,35.5,26.7,30.27,SE,134,0.0,5.0,70,0.00,,,0.00,VWS V14.01,2013-11-19 23:04:00,
2013-11-19 18:09:00,35.2,26.4,30.27,SE,134,0.0,5.0,70,0.00,,,0.00,VWS V14.01,2013-11-19 23:09:00,
2013-11-19 18:14:00,35.1,26.3,30.27,SE,134,0.0,5.0,70,0.00,,,0.00,VWS V14.01,2013-11-19 23:14:00,
2013-11-19 18:19:00,35.0,26.6,30.27,SE,134,0.0,5.0,71,0.00,,,0.00,VWS V14.01,2013-11-19 23:19:00,
2013-11-19 18:24:00,34.9,26.5,30.28,SE,134,0.0,5.0,71,0.00,,,0.00,VWS V14.01,2013-11-19 23:24:00,
2013-11-19 18:29:00,34.8,26.4,30.28,SE,134,0.0,5.0,71,0.00,,,0.00,VWS V14.01,2013-11-19 23:29:00,
2013-11-19 18:34:00,34.7,26.3,30.28,SE,134,0.0,5.0,71,0.00,,,0.00,VWS V14.01,2013-11-19 23:34:00,
2013-11-19 18:39:00,34.6,26.2,30.28,SE,134,0.0,5.0,71,0.00,,,0.00,VWS V14.01,2013-11-19 23:39:00,
2013-11-19 18:44:00,34.5,26.4,30.28,SE,134,0.0,5.0,72,0.00,,,0.00,VWS V14.01,2013-11-19 23:44:00,
2013-11-19 18:49:00,34.4,26.3,30.28,SE,134,0.0,5.0,72,0.00,,,0.00,VWS V14.01,2013-11-19 23:49:00,
2013-11-19 18:54:00,34.2,26.1,30.28,SE,134,0.0,5.0,72,0.00,,,0.00,VWS V14.01,2013-11-19 23:54:00,
2013-11-19 18:59:00,34.0,25.9,30.28,SE,134,0.0,5.0,72,0.00,,,0.00,VWS V14.01,2013-11-19 23:59:00,
2013-11-19 19:04:00,33.9,26.2,30.28,SE,134,0.0,5.0,73,0.00,,,0.00,VWS V14.01,2013-11-20 00:04:00,
2013-11-19 19:09:00,33.8,26.1,30.28,SE,134,0.0,5.0,73,0.00,,,0.00,VWS V14.01,2013-11-20 00:09:00,
2013-11-19 19:14:00,33.7,26.0,30.28,SE,134,0.0,5.0,73,0.00,,,0.00,VWS V14.01,2013-11-20 00:14:00,
2013-11-19 19:19:00,33.7,26.0,30.28,SE,134,0.0,5.0,73,0.00,,,0.00,VWS V14.01,2013-11-20 00:19:00,
2013-11-19 19:24:00,33.8,26.1,30.28,SE,134,0.0,5.0,73,0.00,,,0.00,VWS V14.01,2013-11-20 00:24:00,
2013-11-19 19:29:00,33.7,26.0,30.28,SE,134,0.0,5.0,73,0.00,,,0.00,VWS V14.01,2013-11-20 00:29:00,
2013-11-19 19:34:00,33.6,25.9,30.29,SE,134,0.0,5.0,73,0.00,,,0.00,VWS V14.01,2013-11-20 00:34:00,
2013-11-19 19:39:00,33.5,25.8,30.29,SE,134,0.0,5.0,73,0.00,,,0.00,VWS V14.01,2013-11-20 00:39:00,
2013-11-19 19:44:00,33.3,25.9,30.29,SE,134,0.0,5.0,74,0.00,,,0.00,VWS V14.01,2013-11-20 00:44:00,
2013-11-19 19:49:00,33.2,25.8,30.29,SE,134,0.0,5.0,74,0.00,,,0.00,VWS V14.01,2013-11-20 00:49:00,
2013-11-19 19:54:00,33.2,25.8,30.29,SE,134,0.0,5.0,74,0.00,,,0.00,VWS V14.01,2013-11-20 00:54:00,
2013-11-19 19:59:00,33.1,26.0,30.29,SE,134,0.0,5.0,75,0.00,,,0.00,VWS V14.01,2013-11-20 00:59:00,
2013-11-19 20:04:00,32.9,25.9,30.29,SE,134,0.0,5.0,75,0.00,,,0.00,VWS V14.01,2013-11-20 01:04:00,
2013-11-19 20:09:00,32.9,25.9,30.29,SE,134,0.0,5.0,75,0.00,,,0.00,VWS V14.01,2013-11-20 01:09:00,
2013-11-19 20:14:00,32.8,25.8,30.29,SE,134,0.0,5.0,75,0.00,,,0.00,VWS V14.01,2013-11-20 01:14:00,
2013-11-19 20:19:00,32.7,26.0,30.29,SE,134,0.0,5.0,76,0.00,,,0.00,VWS V14.01,2013-11-20 01:19:00,
2013-11-19 20:24:00,32.7,26.0,30.29,SE,134,0.0,5.0,76,0.00,,,0.00,VWS V14.01,2013-11-20 01:24:00,
2013-11-19 20:29:00,32.6,25.9,30.29,SE,134,0.0,5.0,76,0.00,,,0.00,VWS V14.01,2013-11-20 01:29:00,
2013-11-19 20:34:00,32.5,25.8,30.29,SE,134,0.0,5.0,76,0.00,,,0.00,VWS V14.01,2013-11-20 01:34:00,
2013-11-19 20:39:00,32.4,25.7,30.29,SE,134,0.0,5.0,76,0.00,,,0.00,VWS V14.01,2013-11-20 01:39:00,
2013-11-19 20:44:00,32.4,26.0,30.29,SE,134,0.0,5.0,77,0.00,,,0.00,VWS V14.01,2013-11-20 01:44:00,
2013-11-19 20:49:00,32.4,26.0,30.29,SE,134,0.0,5.0,77,0.00,,,0.00,VWS V14.01,2013-11-20 01:49:00,
2013-11-19 20:54:00,32.4,26.0,30.29,SE,134,0.0,5.0,77,0.00,,,0.00,VWS V14.01,2013-11-20 01:54:00,
2013-11-19 20:59:00,32.3,25.9,30.29,SE,134,0.0,5.0,77,0.00,,,0.00,VWS V14.01,2013-11-20 01:59:00,
2013-11-19 21:04:00,32.3,25.9,30.29,SE,134,0.0,5.0,77,0.00,,,0.00,VWS V14.01,2013-11-20 02:04:00,
2013-11-19 21:09:00,32.4,26.0,30.29,SE,134,0.0,5.0,77,0.00,,,0.00,VWS V14.01,2013-11-20 02:09:00,
2013-11-19 21:14:00,32.4,26.0,30.29,SE,134,0.0,5.0,77,0.00,,,0.00,VWS V14.01,2013-11-20 02:14:00,
2013-11-19 21:19:00,32.3,25.9,30.29,SE,134,0.0,5.0,77,0.00,,,0.00,VWS V14.01,2013-11-20 02:19:00,
2013-11-19 21:24:00,32.3,25.9,30.29,SE,134,0.0,5.0,77,0.00,,,0.00,VWS V14.01,2013-11-20 02:24:00,
2013-11-19 21:29:00,32.2,25.8,30.29,SE,134,1.0,5.0,77,0.00,,,0.00,VWS V14.01,2013-11-20 02:29:00,
2013-11-19 21:34:00,32.1,25.7,30.29,SE,134,0.0,5.0,77,0.00,,,0.00,VWS V14.01,2013-11-20 02:34:00,
2013-11-19 21:39:00,31.9,25.8,30.30,SE,134,0.0,5.0,78,0.00,,,0.00,VWS V14.01,2013-11-20 02:39:00,
2013-11-19 21:44:00,31.8,25.7,30.30,SE,134,0.0,5.0,78,0.00,,,0.00,VWS V14.01,2013-11-20 02:44:00,
2013-11-19 21:49:00,31.6,25.5,30.30,SE,134,0.0,5.0,78,0.00,,,0.00,VWS V14.01,2013-11-20 02:49:00,
2013-11-19 21:54:00,31.4,25.4,30.30,SE,134,0.0,5.0,78,0.00,,,0.00,VWS V14.01,2013-11-20 02:54:00,
2013-11-19 21:59:00,31.3,25.6,30.30,SE,134,0.0,5.0,79,0.00,,,0.00,VWS V14.01,2013-11-20 02:59:00,
2013-11-19 22:04:00,31.1,25.4,30.30,SE,134,0.0,0.0,79,0.00,,,0.00,VWS V14.01,2013-11-20 03:04:00,
2013-11-19 22:09:00,30.7,25.0,30.30,SE,134,0.0,0.0,79,0.00,,,0.00,VWS V14.01,2013-11-20 03:09:00,
2013-11-19 22:14:00,30.2,24.8,30.30,SE,134,0.0,0.0,80,0.00,,,0.00,VWS V14.01,2013-11-20 03:14:00,
2013-11-19 22:19:00,29.9,24.8,30.29,SE,134,0.0,0.0,81,0.00,,,0.00,VWS V14.01,2013-11-20 03:19:00,
2013-11-19 22:24:00,29.4,24.3,30.29,SE,134,0.0,0.0,81,0.00,,,0.00,VWS V14.01,2013-11-20 03:24:00,
2013-11-19 22:29:00,29.1,24.3,30.29,SE,134,0.0,0.0,82,0.00,,,0.00,VWS V14.01,2013-11-20 03:29:00,
2013-11-19 22:34:00,28.8,24.3,30.29,SE,134,0.0,0.0,83,0.00,,,0.00,VWS V14.01,2013-11-20 03:34:00,
2013-11-19 22:39:00,28.6,24.4,30.29,SE,134,0.0,0.0,84,0.00,,,0.00,VWS V14.01,2013-11-20 03:39:00,
2013-11-19 22:44:00,29.4,25.2,30.29,SE,134,0.0,0.0,84,0.00,,,0.00,VWS V14.01,2013-11-20 03:44:00,
2013-11-19 22:49:00,29.8,25.3,30.29,SE,134,0.0,0.0,83,0.00,,,0.00,VWS V14.01,2013-11-20 03:49:00,
2013-11-19 22:54:00,30.1,25.3,30.29,SE,134,0.0,0.0,82,0.00,,,0.00,VWS V14.01,2013-11-20 03:54:00,
2013-11-19 22:59:00,30.4,25.6,30.29,SE,134,0.0,1.0,82,0.00,,,0.00,VWS V14.01,2013-11-20 03:59:00,
2013-11-19 23:04:00,30.5,25.4,30.29,SE,134,0.0,0.0,81,0.00,,,0.00,VWS V14.01,2013-11-20 04:04:00,
2013-11-19 23:09:00,30.5,25.4,30.29,SE,134,0.0,0.0,81,0.00,,,0.00,VWS V14.01,2013-11-20 04:09:00,
2013-11-19 23:14:00,30.5,25.4,30.29,SE,134,0.0,0.0,81,0.00,,,0.00,VWS V14.01,2013-11-20 04:14:00,
2013-11-19 23:19:00,30.6,25.5,30.29,SE,134,0.0,1.0,81,0.00,,,0.00,VWS V14.01,2013-11-20 04:19:00,
2013-11-19 23:24:00,30.8,25.4,30.29,SE,134,0.0,1.0,80,0.00,,,0.00,VWS V14.01,2013-11-20 04:24:00,
2013-11-19 23:29:00,30.8,25.7,30.29,SE,134,0.0,1.0,81,0.00,,,0.00,VWS V14.01,2013-11-20 04:29:00,
2013-11-19 23:34:00,30.8,25.4,30.29,SE,134,0.0,1.0,80,0.00,,,0.00,VWS V14.01,2013-11-20 04:34:00,
2013-11-19 23:39:00,30.8,25.4,30.29,SE,134,0.0,1.0,80,0.00,,,0.00,VWS V14.01,2013-11-20 04:39:00,
2013-11-19 23:44:00,30.7,25.6,30.29,SE,134,0.0,1.0,81,0.00,,,0.00,VWS V14.01,2013-11-20 04:44:00,
2013-11-19 23:49:00,30.6,25.5,30.29,SE,134,0.0,1.0,81,0.00,,,0.00,VWS V14.01,2013-11-20 04:49:00,
2013-11-19 23:54:00,30.4,25.3,30.29,SE,134,0.0,1.0,81,0.00,,,0.00,VWS V14.01,2013-11-20 04:54:00,
2013-11-19 23:59:00,30.4,25.3,30.29,SE,134,0.0,1.0,81,0.00,,,0.00,VWS V14.01,2013-11-20 04:59:00,